Regional Weather Roundup
Issued by NWS

Home | Current Version | Previous Version | Graphics & Text | Print | Product List | Glossary On
Versions: 1 2 3 4 5 6 7 8 9 10 11 12 13 14 15 16 17 18 19 20 21 22 23 24 25 26 27 28 29 30 31 32 33 34 35 36 37 38 39 40 41 42 43 44 45 46 47 48 49 50
000
ASUS43 KOAX 100802
RWRNE

WEATHER ROUNDUP FOR NEBRASKA
NATIONAL WEATHER SERVICE OMAHA NE
200 AM CST SUN DEC 10 2017

NOTES: SATELLITE DATA IS BEING USED TO AUGMENT CLOUD COVER ABOVE
       12000 FEET.
       "FAIR" INDICATES FEW OR NO CLOUDS BELOW 12,000 FEET WITH NO
       SIGNIFICANT WEATHER AND/OR OBSTRUCTIONS TO VISIBILITY.


NEZ001>004-019>022-054>056-100900-
NEBRASKA PANHANDLE

CITY           SKY/WX    TMP DP  RH WIND       PRES   REMARKS
SCOTTSBLUFF    CLOUDY    31  11  43 NW13      30.35S WCI  21
ALLIANCE       CLEAR     30  11  45 W12       30.28R WCI  20
CHADRON        CLEAR     38  12  34 W16       30.29R WCI  29
GORDON         FAIR      38  16  42 W18       30.22S WCI  28
KIMBALL        CLEAR     35   5  28 W15       30.36S WCI  25
SIDNEY         CLEAR     36   8  31 W15       30.33S WCI  27
$$

NEZ057>060-069>072-079>082-100900-
SOUTHWEST NEBRASKA

CITY           SKY/WX    TMP DP  RH WIND       PRES   REMARKS
NORTH PLATTE   CLEAR     33  15  47 W13       30.22R WCI  24
IMPERIAL       CLEAR     37  10  32 W14       30.27S WCI  28
LEXINGTON      CLEAR     37  16  43 NW14      30.17R WCI  28
MCCOOK         CLEAR     39  14  36 W17       30.22S WCI  30
OGALLALA       CLEAR     28  13  54 W6        30.26F WCI  22
$$

NEZ005>010-023>029-035>040-094-100900-
NORTH CENTRAL NEBRASKA

CITY           SKY/WX    TMP DP  RH WIND       PRES   REMARKS
VALENTINE      CLEAR     42  17  36 W18G24    30.12S
AINSWORTH      CLEAR     39  18  42 W15       30.11R WCI  31
BROKEN BOW     CLEAR     44  15  31 NW18      30.12R
O`NEILL        CLEAR     43  20  39 W21G26    30.04F
ORD            CLEAR     42  17  36 NW16      30.07S
THEDFORD       CLEAR     39  18  42 W13       30.17S WCI  32
$$

NEZ041-046>049-061>064-073>077-083>087-100900-
SOUTH CENTRAL NEBRASKA

CITY           SKY/WX    TMP DP  RH WIND       PRES   REMARKS
GRAND ISLAND   CLEAR     38  17  42 W16       30.09F WCI  29
AURORA         CLEAR     40  17  38 W15       30.08S WCI  32
HASTINGS       CLEAR     37  15  40 W15       30.11S WCI  28
HEBRON         CLEAR     33  19  56 W5        30.10S WCI  29
HOLDREGE       CLEAR     37  16  42 W12       30.15S WCI  30
KEARNEY        CLEAR     41  14  33 W15       30.13S
$$

NEZ011>018-030>034-042>045-100900-
NORTHEAST NEBRASKA

CITY           SKY/WX    TMP DP  RH WIND       PRES   REMARKS
NORFOLK        CLEAR     37  22  54 W12       29.99S WCI  29
ALBION         CLEAR     44  20  38 NW14      30.03S
BLAIR          CLOUDY    32  23  67 W8        29.98S WCI  25
COLUMBUS       CLOUDY    32  21  64 W9        30.03S WCI  24
FREMONT        CLOUDY    29  22  74 W12       30.00S WCI  20
TEKAMAH        CLOUDY    27  19  72 SE6       29.98R WCI  20
WAYNE          CLEAR     38  20  48 W12G20    29.97R WCI  31
$$

NEZ050>053-065>068-078-088>093-100900-
SOUTHEAST NEBRASKA

CITY           SKY/WX    TMP DP  RH WIND       PRES   REMARKS
LINCOLN        CLOUDY    36  20  52 W6        30.05F WCI  31
OMAHA EPPLEY   CLOUDY    29  19  66 CALM      29.99F
BEATRICE       CLOUDY    32  21  64 W10       30.06F WCI  24
FALLS CITY     CLOUDY    28  19  69 W5        30.04F WCI  23
NEBRASKA CITY  CLOUDY    33  24  68 W15       30.01F WCI  23
PLATTSMOUTH    CLOUDY    34  23  65 W8        30.01F WCI  27
$$

NEZ044-045-051>053-067-100900-
OMAHA AREA

CITY           SKY/WX    TMP DP  RH WIND       PRES   REMARKS
OMAHA EPPLEY   CLOUDY    29  19  66 CALM      29.99F
BLAIR          CLOUDY    32  23  67 W8        29.98S WCI  25
FREMONT        CLOUDY    29  22  74 W12       30.00S WCI  20
MILLARD        CLOUDY    34  23  63 W3        30.01S
OFFUTT AFB     CLOUDY    20  16  83 CALM      30.00F
PLATTSMOUTH    CLOUDY    34  23  65 W8        30.01F WCI  27
WAHOO          FAIR      39  22  50 W15       30.00S WCI  30
$$




USA.gov is the U.S. government's official web portal to all federal, state and local government web resources and services.